Weather History for KPVB - January, 2013

Change the Weather History Date:

Saturday, January 5, 2013

  Actual Average (KDBQ) Record (KDBQ)
Temperature  
Mean Temperature 24 °F 19 °F  
Max Temperature 33 °F 26 °F 54 °F (2012)
Min Temperature 15 °F 11 °F -24 °F (1924)
Degree Days  
Heating Degree Days 41 46  
Month to date heating degree days 230  
Since 1 July heating degree days 3040  
Cooling Degree Days 0 0  
Month to date cooling degree days 0  
Year to date cooling degree days 0  
Moisture  
Dew Point 21 °F    
Average Humidity 86    
Maximum Humidity 93    
Minimum Humidity 74    
Precipitation  
Precipitation 0.00 in 0.04 in 1.04 in (1946)
Month to date precipitation 0.20  
Year to date precipitation 0.20  
Snow  
Snow 0.00 in 0.30 in - ()
Month to date snowfall 1.6  
Since 1 July snowfall 16.2  
Snow Depth -    
Sea Level Pressure  
Sea Level Pressure 30.04 in    
Wind  
Wind Speed 9 mph (SSW)    
Max Wind Speed 20 mph    
Max Gust Speed 28 mph    
Visibility 8 miles    
Events      
T = Trace of Precipitation, MM = Missing Value Source: NWS Daily Summary

Daily Weather History Graph

Daily Weather History Graph

Search for Another Location

Airport or City:

Trip Planner

Search our weather history database for the weather conditions in past years. The results will help you decide how hot, cold, wet, or windy it might be!

Date:

Astronomy

Jan. 05, 2013 Rise Set
Actual Time 7:32 AM CST 4:42 PM CST
Civil Twilight 7:00 AM CST 5:14 PM CST
Nautical Twilight 6:24 AM CST 5:50 PM CST
Astronomical Twilight 5:50 AM CST 6:24 PM CST
Moon 12:33 AM CST (1/5) 11:36 AM CST (1/5)
Length of Visible Light 10h 14m
Length of Day
9h 10m
Last Quarter, 44% of the Moon is Illuminated
Jan 5
Last Quarter
Jan 11
New
Jan 18
First Quarter
Jan 26
Full
Feb 3
Last Quarter

Hourly Weather History & Observations

Time (CST) Temp. Windchill Dew Point Humidity Pressure Visibility Wind Dir Wind Speed Gust Speed Precip Events Conditions
12:15 AM 17.6 °F 7.3 °F 14.0 °F 86% 30.16 in 10.0 mi South 8.1 mph - N/A   Clear
12:35 AM 15.8 °F 5.1 °F 12.2 °F 86% 30.17 in 10.0 mi South 8.1 mph - N/A   Clear
12:55 AM 17.6 °F 9.3 °F 14.0 °F 86% 30.17 in 10.0 mi SSW 5.8 mph - N/A   Clear
1:15 AM 15.8 °F 4.2 °F 12.2 °F 86% 30.18 in 10.0 mi SSW 9.2 mph - N/A   Clear
1:35 AM 17.6 °F 9.3 °F 14.0 °F 86% 30.17 in 10.0 mi South 5.8 mph - N/A   Clear
1:55 AM 17.6 °F 12.3 °F 14.0 °F 86% 30.16 in 10.0 mi SSW 3.5 mph - N/A   Clear
2:15 AM 19.4 °F 14.3 °F 14.0 °F 80% 30.16 in 10.0 mi South 3.5 mph - N/A   Clear
2:35 AM 19.4 °F 14.3 °F 15.8 °F 86% 30.16 in 10.0 mi South 3.5 mph - N/A   Clear
2:55 AM 17.6 °F - 14.0 °F 86% 30.16 in 10.0 mi Calm Calm - N/A   Clear
3:15 AM 17.6 °F 8.2 °F 14.0 °F 86% 30.15 in 10.0 mi SSE 6.9 mph - N/A   Clear
3:35 AM 17.6 °F 7.3 °F 14.0 °F 86% 30.16 in 7.0 mi SSE 8.1 mph - N/A   Clear
3:55 AM 17.6 °F 7.3 °F 14.0 °F 86% 30.14 in 7.0 mi SE 8.1 mph - N/A   Clear
4:15 AM 17.6 °F 7.3 °F 14.0 °F 86% 30.13 in 7.0 mi SE 8.1 mph - N/A   Clear
4:35 AM 17.6 °F 7.3 °F 14.0 °F 86% 30.12 in 7.0 mi SE 8.1 mph - N/A   Clear
4:55 AM 17.6 °F 7.3 °F 14.0 °F 86% 30.12 in 5.0 mi SE 8.1 mph - N/A   Clear
5:15 AM 17.6 °F 7.3 °F 14.0 °F 86% 30.13 in 5.0 mi SSE 8.1 mph - N/A   Clear
5:35 AM 17.6 °F 9.3 °F 14.0 °F 86% 30.13 in 7.0 mi SSE 5.8 mph - N/A   Clear
5:55 AM 15.8 °F 7.2 °F 14.0 °F 93% 30.13 in 5.0 mi SSE 5.8 mph - N/A   Clear
6:35 AM 17.6 °F 6.4 °F 14.0 °F 86% 30.11 in 5.0 mi SSE 9.2 mph - N/A   Clear
6:55 AM 17.6 °F 7.3 °F 14.0 °F 86% 30.11 in 5.0 mi SSE 8.1 mph - N/A   Clear
7:15 AM 17.6 °F 5.7 °F 14.0 °F 86% 30.09 in 5.0 mi SE 10.4 mph - N/A   Clear
7:35 AM 17.6 °F 8.2 °F 14.0 °F 86% 30.09 in 3.0 mi SE 6.9 mph - N/A   Clear
7:55 AM 17.6 °F 7.3 °F 14.0 °F 86% 30.09 in 2.5 mi SSE 8.1 mph - N/A   Clear
8:35 AM 19.4 °F 9.5 °F 15.8 °F 86% 30.11 in 4.0 mi South 8.1 mph - N/A   Clear
8:55 AM 21.2 °F 11.7 °F 17.6 °F 86% 30.11 in 5.0 mi South 8.1 mph - N/A   Clear
9:35 AM 21.2 °F 11.7 °F 19.4 °F 93% 30.11 in 5.0 mi South 8.1 mph - N/A   Clear
9:55 AM 23.0 °F 12.4 °F 19.4 °F 86% 30.09 in 5.0 mi South 10.4 mph - N/A   Clear
10:35 AM 23.0 °F 12.4 °F 21.2 °F 93% 30.08 in 7.0 mi South 10.4 mph - N/A   Scattered Clouds
10:55 AM 24.8 °F 15.3 °F 21.2 °F 86% 30.06 in 7.0 mi South 9.2 mph - N/A   Overcast
11:55 AM 30.2 °F 19.8 °F 23.0 °F 75% 30.03 in 10.0 mi SSW 13.8 mph - N/A   Overcast
12:35 PM 30.2 °F 20.8 °F 23.0 °F 75% 30.02 in 10.0 mi SSW 11.5 mph - N/A   Clear
1:35 PM 32.0 °F 23.0 °F 26.6 °F 80% 29.97 in 10.0 mi SSW 11.5 mph - N/A   Clear
1:55 PM 32.0 °F 22.5 °F 26.6 °F 80% 29.96 in 10.0 mi SSW 12.7 mph - N/A   Clear
2:15 PM 32.0 °F 23.0 °F 26.6 °F 80% 29.96 in 10.0 mi SSW 11.5 mph - N/A   Clear
2:55 PM 32.0 °F 21.6 °F 28.4 °F 87% 29.95 in 10.0 mi South 15.0 mph - N/A   Overcast
3:15 PM 33.8 °F 24.8 °F 30.2 °F 87% 29.95 in 10.0 mi SSW 12.7 mph - N/A   Mostly Cloudy
3:35 PM 33.8 °F 25.8 °F 30.2 °F 87% 29.94 in 10.0 mi SSW 10.4 mph - N/A   Mostly Cloudy
5:15 PM 33.8 °F 24.3 °F 32.0 °F 93% 29.92 in 10.0 mi SSW 13.8 mph - N/A   Overcast
5:35 PM 33.8 °F 23.5 °F 32.0 °F 93% 29.92 in 10.0 mi SSW 16.1 mph - N/A   Overcast
6:15 PM 33.8 °F 23.9 °F 32.0 °F 93% 29.92 in 10.0 mi SSW 15.0 mph - N/A   Overcast
7:15 PM 33.8 °F 24.8 °F 32.0 °F 93% 29.92 in 10.0 mi SSW 12.7 mph - N/A   Overcast
7:35 PM 33.8 °F 23.5 °F 32.0 °F 93% 29.92 in 10.0 mi SSW 16.1 mph - N/A   Overcast
7:55 PM 33.8 °F 23.5 °F 32.0 °F 93% 29.91 in 10.0 mi SSW 16.1 mph - N/A   Overcast
8:15 PM 33.8 °F 24.3 °F 32.0 °F 93% 29.91 in 10.0 mi SSW 13.8 mph - N/A   Overcast
8:35 PM 33.8 °F 24.3 °F 32.0 °F 93% 29.91 in 10.0 mi SSW 13.8 mph - N/A   Overcast
8:55 PM 33.8 °F 23.5 °F 32.0 °F 93% 29.90 in 10.0 mi SW 16.1 mph - N/A   Overcast
9:15 PM 33.8 °F 24.3 °F 32.0 °F 93% 29.90 in 10.0 mi SW 13.8 mph - N/A   Overcast
9:35 PM 33.8 °F 24.8 °F 32.0 °F 93% 29.90 in 10.0 mi SW 12.7 mph - N/A   Overcast
9:55 PM 33.8 °F 22.5 °F 30.2 °F 87% 29.91 in 10.0 mi WSW 19.6 mph - N/A   Overcast
10:15 PM 32.0 °F 20.1 °F 28.4 °F 87% 29.91 in 10.0 mi WSW 19.6 mph 23.0 mph N/A   Overcast
10:35 PM 32.0 °F 20.5 °F 26.6 °F 80% 29.91 in 10.0 mi WSW 18.4 mph 27.6 mph N/A   Overcast
10:55 PM 32.0 °F 23.0 °F 26.6 °F 80% 29.91 in 10.0 mi West 11.5 mph 25.3 mph N/A   Overcast
11:15 PM 28.4 °F 16.6 °F 23.0 °F 80% 29.91 in 10.0 mi West 16.1 mph - N/A   Scattered Clouds
11:35 PM 26.6 °F 14.3 °F 21.2 °F 80% 29.91 in 10.0 mi West 16.1 mph - N/A   Clear
11:55 PM 26.6 °F 14.3 °F 19.4 °F 74% 29.91 in 10.0 mi West 16.1 mph - N/A   Scattered Clouds